When you browse on this site, cookies collect data to enhance your experience and personalize the content and advertising you see.
Visit our Privacy Policy to learn more. By continuing to use the site, you agree to this use of cookies and data.
  • In France
  • List of Countries
  • For 7 days
  • Water Temperature
  • Satellite Maps
  • Weather Map
  • Weather Widgets
  • user-avatar
    Login

    Hourly Weather Kalgoorlie

    Today, 23 May, Thursday

    Time Temperature Precipitation Wind Pressure Humidity
    00:00 +19°C° 0 mm 3 mps 732 mmHg 34%
    01:00 +18°C° 0 mm 3 mps 732 mmHg 39%
    02:00 +18°C° 0 mm 3 mps 732 mmHg 43%
    03:00 +17°C° 0 mm 3 mps 732 mmHg 49%
    04:00 +16°C° 0 mm 3 mps 732 mmHg 54%
    05:00 +16°C° 0 mm 3 mps 733 mmHg 59%
    06:00 +15°C° 0 mm 4 mps 733 mmHg 61%
    07:00 +15°C° 0 mm 4 mps 734 mmHg 62%
    08:00 +15°C° 0 mm 4 mps 734 mmHg 70%
    09:00 +18°C° 0 mm 4 mps 734 mmHg 62%
    10:00 +20°C° 0 mm 4 mps 734 mmHg 54%
    11:00 +22°C° 0 mm 4 mps 734 mmHg 46%
    12:00 +23°C° 0 mm 5 mps 734 mmHg 42%
    13:00 +25°C° 0 mm 5 mps 734 mmHg 38%
    14:00 +26°C° 0 mm 6 mps 734 mmHg 34%
    15:00 +25°C° 0 mm 5 mps 734 mmHg 36%
    16:00 +23°C° 0 mm 5 mps 734 mmHg 37%
    17:00 +22°C° 0 mm 4 mps 734 mmHg 38%
    18:00 +21°C° 0 mm 4 mps 734 mmHg 40%
    19:00 +19°C° 0 mm 4 mps 734 mmHg 43%
    20:00 +18°C° 0 mm 4 mps 735 mmHg 45%
    21:00 +18°C° 0 mm 3 mps 735 mmHg 46%
    22:00 +17°C° 0 mm 3 mps 735 mmHg 48%
    23:00 +16°C° 0 mm 2 mps 735 mmHg 49%

    Tomorrow, 24 May, Friday

    Time Temperature Precipitation Wind Pressure Humidity
    00:00 +16°C° 0 mm 2 mps 735 mmHg 50%
    01:00 +15°C° 0 mm 2 mps 735 mmHg 52%
    02:00 +15°C° 0 mm 2 mps 734 mmHg 53%
    03:00 +15°C° 0 mm 2 mps 734 mmHg 54%
    04:00 +14°C° 0 mm 2 mps 734 mmHg 56%
    05:00 +14°C° 0 mm 2 mps 734 mmHg 57%
    06:00 +14°C° 0 mm 2 mps 735 mmHg 56%
    07:00 +15°C° 0 mm 2 mps 735 mmHg 56%
    08:00 +15°C° 0 mm 2 mps 735 mmHg 55%
    09:00 +16°C° 0 mm 2 mps 735 mmHg 49%
    10:00 +18°C° 0 mm 2 mps 735 mmHg 44%
    11:00 +20°C° 0 mm 2 mps 735 mmHg 38%
    12:00 +20°C° 0 mm 2 mps 735 mmHg 35%
    13:00 +21°C° 0 mm 2 mps 734 mmHg 32%
    14:00 +23°C° 0 mm 1 mps 733 mmHg 29%
    15:00 +22°C° 0 mm 1 mps 734 mmHg 30%
    16:00 +22°C° 0 mm 1 mps 734 mmHg 32%
    17:00 +21°C° 0 mm 1 mps 734 mmHg 33%
    18:00 +19°C° 0 mm 2 mps 734 mmHg 35%
    19:00 +18°C° 0 mm 2 mps 734 mmHg 37%
    20:00 +18°C° 0 mm 2 mps 735 mmHg 39%
    21:00 +17°C° 0 mm 3 mps 735 mmHg 40%
    22:00 +16°C° 0 mm 3 mps 735 mmHg 42%
    23:00 +15°C° 0 mm 4 mps 735 mmHg 44%

    Day after tomorrow, 25 May, Saturday

    Time Temperature Precipitation Wind Pressure Humidity
    00:00 +14°C° 0 mm 4 mps 735 mmHg 48%
    01:00 +13°C° 0 mm 4 mps 735 mmHg 53%
    02:00 +13°C° 0 mm 4 mps 735 mmHg 57%
    03:00 +12°C° 0 mm 4 mps 735 mmHg 61%
    04:00 +12°C° 0 mm 3 mps 735 mmHg 65%
    05:00 +12°C° 0 mm 3 mps 735 mmHg 69%
    06:00 +12°C° 0 mm 3 mps 735 mmHg 69%
    07:00 +12°C° 0 mm 3 mps 735 mmHg 70%
    08:00 +12°C° 0 mm 3 mps 736 mmHg 70%
    09:00 +14°C° 0 mm 3 mps 736 mmHg 64%
    10:00 +16°C° 0 mm 3 mps 736 mmHg 58%
    11:00 +17°C° 0 mm 3 mps 736 mmHg 52%
    12:00 +18°C° 0 mm 3 mps 735 mmHg 49%
    13:00 +19°C° 0 mm 2 mps 735 mmHg 46%
    14:00 +19°C° 0 mm 2 mps 734 mmHg 42%
    15:00 +19°C° 0 mm 2 mps 734 mmHg 43%
    16:00 +19°C° 0 mm 2 mps 734 mmHg 44%
    17:00 +18°C° 0 mm 2 mps 734 mmHg 45%
    18:00 +18°C° 0 mm 2 mps 735 mmHg 48%
    19:00 +17°C° 0 mm 3 mps 735 mmHg 50%
    20:00 +16°C° 0 mm 3 mps 735 mmHg 52%
    21:00 +16°C° 0 mm 3 mps 736 mmHg 56%
    22:00 +14°C° 0 mm 4 mps 736 mmHg 60%
    23:00 +14°C° 0 mm 4 mps 736 mmHg 64%

    26 May, Sunday

    Time Temperature Precipitation Wind Pressure Humidity
    00:00 +13°C° 0 mm 4 mps 736 mmHg 68%
    01:00 +13°C° 0 mm 4 mps 736 mmHg 71%
    02:00 +12°C° 0 mm 3 mps 735 mmHg 75%
    03:00 +12°C° 0 mm 3 mps 735 mmHg 78%
    04:00 +11°C° 0 mm 3 mps 735 mmHg 81%
    05:00 +11°C° 0 mm 3 mps 735 mmHg 85%
    06:00 +11°C° 0 mm 4 mps 736 mmHg 84%
    07:00 +11°C° 0 mm 4 mps 736 mmHg 84%
    08:00 +12°C° 0 mm 5 mps 737 mmHg 84%
    09:00 +13°C° 0 mm 5 mps 737 mmHg 76%
    10:00 +15°C° 0 mm 5 mps 737 mmHg 67%
    11:00 +16°C° 0 mm 5 mps 737 mmHg 59%
    12:00 +18°C° 0 mm 4 mps 736 mmHg 55%
    13:00 +18°C° 0 mm 4 mps 735 mmHg 51%
    14:00 +19°C° 0 mm 4 mps 735 mmHg 48%
    15:00 +19°C° 0 mm 4 mps 735 mmHg 49%
    16:00 +18°C° 0 mm 4 mps 735 mmHg 50%
    17:00 +18°C° 0 mm 4 mps 735 mmHg 51%
    18:00 +17°C° 0 mm 4 mps 736 mmHg 54%
    19:00 +15°C° 0 mm 4 mps 736 mmHg 57%
    20:00 +15°C° 0 mm 5 mps 737 mmHg 61%
    21:00 +14°C° 0 mm 5 mps 737 mmHg 63%
    22:00 +13°C° 0 mm 5 mps 737 mmHg 65%
    23:00 +13°C° 0 mm 4 mps 737 mmHg 68%

    27 May, Monday

    Time Temperature Precipitation Wind Pressure Humidity
    00:00 +12°C° 0 mm 4 mps 737 mmHg 69%
    01:00 +12°C° 0 mm 4 mps 737 mmHg 70%
    02:00 +11°C° 0 mm 4 mps 737 mmHg 72%
    03:00 +11°C° 0 mm 4 mps 737 mmHg 73%
    04:00 +11°C° 0 mm 4 mps 737 mmHg 74%
    05:00 +10°C° 0 mm 4 mps 737 mmHg 75%
    06:00 +11°C° 0 mm 4 mps 737 mmHg 73%
    07:00 +11°C° 0 mm 4 mps 738 mmHg 70%
    08:00 +10°C° 0 mm 5 mps 738 mmHg 68%
    09:00 +13°C° 0 mm 4 mps 738 mmHg 62%
    10:00 +14°C° 0 mm 4 mps 738 mmHg 57%
    11:00 +17°C° 0 mm 4 mps 737 mmHg 51%
    12:00 +17°C° 0 mm 3 mps 737 mmHg 48%
    13:00 +18°C° 0 mm 3 mps 736 mmHg 46%
    14:00 +19°C° 0 mm 2 mps 736 mmHg 43%
    15:00 +18°C° 0 mm 2 mps 736 mmHg 44%
    16:00 +18°C° 0 mm 2 mps 736 mmHg 45%
    17:00 +17°C° 0 mm 3 mps 736 mmHg 46%
    18:00 +17°C° 0 mm 3 mps 736 mmHg 48%
    19:00 +16°C° 0 mm 3 mps 736 mmHg 50%
    20:00 +14°C° 0 mm 3 mps 737 mmHg 51%
    21:00 +14°C° 0 mm 3 mps 737 mmHg 53%
    22:00 +13°C° 0 mm 3 mps 737 mmHg 54%
    23:00 +13°C° 0 mm 3 mps 736 mmHg 56%

    28 May, Tuesday

    Time Temperature Precipitation Wind Pressure Humidity
    00:00 +12°C° 0 mm 3 mps 736 mmHg 57%
    01:00 +12°C° 0 mm 3 mps 736 mmHg 59%
    02:00 +12°C° 0 mm 2 mps 736 mmHg 61%
    03:00 +12°C° 0 mm 2 mps 736 mmHg 62%
    04:00 +12°C° 0 mm 2 mps 736 mmHg 64%
    05:00 +10°C° 0 mm 2 mps 736 mmHg 66%
    06:00 +12°C° 0 mm 2 mps 737 mmHg 64%
    07:00 +12°C° 0 mm 2 mps 737 mmHg 62%
    08:00 +11°C° 0 mm 3 mps 737 mmHg 61%
    09:00 +14°C° 0 mm 2 mps 737 mmHg 55%
    10:00 +16°C° 0 mm 2 mps 737 mmHg 49%
    11:00 +17°C° 0 mm 2 mps 737 mmHg 44%
    12:00 +18°C° 0 mm 2 mps 736 mmHg 40%
    13:00 +18°C° 0 mm 2 mps 736 mmHg 36%
    14:00 +19°C° 0 mm 2 mps 735 mmHg 33%
    15:00 +19°C° 0 mm 2 mps 735 mmHg 34%
    16:00 +18°C° 0 mm 2 mps 736 mmHg 35%
    17:00 +17°C° 0 mm 3 mps 736 mmHg 36%
    18:00 +17°C° 0 mm 3 mps 736 mmHg 38%
    19:00 +16°C° 0 mm 3 mps 737 mmHg 40%
    20:00 +14°C° 0 mm 3 mps 737 mmHg 42%
    21:00 +14°C° 0 mm 3 mps 737 mmHg 44%
    22:00 +13°C° 0 mm 3 mps 738 mmHg 46%
    23:00 +13°C° 0 mm 3 mps 738 mmHg 48%
    Show more